Location: Lombard
(41.8800°N, 88.0080°W)
Time: 03:02:50
(UTC-05:00)

BEESAT - Pass Details

Date: 23 May 2022
Orbit: 698 x 708 km, 98.6° (Epoch: 26 June)

Event Time Altitude Azimuth Distance (km) Brightness Sun altitude
Rises 21:35:54 0° 8° (N) 3,093 ? -13.1°
Reaches altitude 10° 21:38:11 10° 4° (N) 2,170 ? -13.4°
Maximum altitude 21:42:49 54° 288° (WNW) 853 ? -14.0°
Drops below altitude 10° 21:47:24 10° 212° (SSW) 2,154 ? -14.6°
Sets 21:49:40 0° 208° (SSW) 3,068 ? -14.9°
